Kassel-Calden Airport

Airport
ICAO code: 
EDVK
Summary
ICAO Region: 
EUR
Territory: 
Location: 
Kassel, Germany,
Coordinates: 
Aerial View: 
51° 25' 2.183" N, 9° 23' 5.881" E
Airport WX: 
Fog
Metar
Observation
EDVK 171520Z 29018KT 9999 OVC012 06/04 Q1028
Station
Kassel / Calden
Date/Time
2022-01-17 15:20:00
Wind direction
290°
Wind speed
18 kts
Lowest cloud amount
overcast
Temperature
6°C
Dew point
4°C
Humidity
86%
QNH
1028 hPa
Weather condition
n/a

Description

Located 16.7 Km northwest of the German city of Kassel, the airport is home to a flying school.

Climatology

Temperate Marine climate/Oceanic climate (Köppen climate classification Cfb). Moderately cool summer and comparatively warm winter with a temperature range of only 14°C. Prevailing south-westerly winds from the Atlantic Ocean.

Runways

Designator Length Width Surface Rops
04L/22R 700 30 GRS No/No
4/22 1500 30 ASP No/No
Airport map: 
Aerial View: 

Accidents and Serious Incidents at or in the vicinity of EDVK

SKYbrary Partners:

Safety knowledge contributed by: